Weather History for KAPF - May, 2014

Change the Weather History Date:

Thursday, May 29, 2014

  Actual Average Record
Temperature  
Mean Temperature 82 °F 80 °F  
Max Temperature 90 °F 89 °F 96 °F (2011)
Min Temperature 73 °F 71 °F 62 °F (1975)
Degree Days  
Heating Degree Days 0 0  
Month to date heating degree days 0 0  
Since 1 July heating degree days 149 260  
Cooling Degree Days 17 15  
Month to date cooling degree days 423 378  
Year to date cooling degree days 1157 998  
Growing Degree Days 31 (Base 50)    
Moisture  
Dew Point 72 °F    
Average Humidity 75    
Maximum Humidity 94    
Minimum Humidity 56    
Precipitation  
Precipitation 0.23 in 0.15 in 6.77 in (1975)
Month to date precipitation 1.23 2.85  
Year to date precipitation 8.09 11.54  
Snow  
Snow 0.00 in - - ()
Month to date snowfall 0.0  
Since 1 July snowfall 0.0  
Snow Depth 0.00 in    
Sea Level Pressure  
Sea Level Pressure 30.00 in    
Wind  
Wind Speed 7 mph (East)    
Max Wind Speed 15 mph    
Max Gust Speed 19 mph    
Visibility 10 miles    
Events Rain , Thunderstorm    
T = Trace of Precipitation, MM = Missing Value Source: NWS Daily Summary

Daily Weather History Graph

Daily Weather History Graph

Search for Another Location

Airport or City:

Trip Planner

Search our weather history database for the weather conditions in past years. The results will help you decide how hot, cold, wet, or windy it might be!

Date:

Astronomy

May. 29, 2014 Rise Set
Actual Time 6:35 AM EDT 8:13 PM EDT
Civil Twilight 6:09 AM EDT 8:39 PM EDT
Nautical Twilight 5:39 AM EDT 9:10 PM EDT
Astronomical Twilight 5:06 AM EDT 9:42 PM EDT
Moon 7:23 AM EDT (5/29) 9:07 PM EDT (5/29)
Length of Visible Light 14h 29m
Length of Day
13h 38m
New Moon, 1% of the Moon is Illuminated
May 29
New Moon
Jun 5
First Quarter
Jun 13
Full
Jun 19
Last Quarter
Jun 27
New

Hourly Weather History & Observations

Time (EDT) Temp. Heat Index Dew Point Humidity Pressure Visibility Wind Dir Wind Speed Gust Speed Precip Events Conditions
12:53 AM 75.9 °F - 71.1 °F 85% 30.01 in 10.0 mi NE 4.6 mph - N/A   Clear
2:53 AM 73.9 °F - 71.1 °F 91% 29.98 in 10.0 mi ENE 4.6 mph - N/A   Clear
4:53 AM 73.9 °F - 72.0 °F 93% 29.97 in 10.0 mi East 5.8 mph - N/A   Clear
5:53 AM 73.0 °F - 71.1 °F 93% 29.98 in 10.0 mi East 5.8 mph - N/A   Clear
6:53 AM 73.9 °F - 72.0 °F 93% 29.99 in 10.0 mi ENE 6.9 mph - N/A   Clear
7:53 AM 77.0 °F - 73.0 °F 88% 30.01 in 10.0 mi East 5.8 mph - N/A   Clear
8:53 AM 80.1 °F 84.5 °F 73.9 °F 81% 30.02 in 10.0 mi ESE 9.2 mph - N/A   Clear
9:53 AM 84.0 °F 90.2 °F 73.0 °F 69% 30.02 in 10.0 mi ESE 10.4 mph - N/A   Partly Cloudy
10:53 AM 84.9 °F 91.4 °F 73.0 °F 67% 30.01 in 10.0 mi SE 9.2 mph - N/A   Scattered Clouds
11:00 AM 86.0 °F 92.2 °F 72.0 °F 63% 30.01 in 10.0 mi East 9.2 mph - N/A   Mostly Cloudy
11:53 AM 87.1 °F 92.8 °F 71.1 °F 59% 30.01 in 10.0 mi South 10.4 mph - N/A   Mostly Cloudy
12:53 PM 89.1 °F 96.0 °F 72.0 °F 57% 30.00 in 10.0 mi SSE 9.2 mph - N/A   Mostly Cloudy
1:00 PM 88.0 °F 92.9 °F 70.0 °F 55% 30.00 in 10.0 mi South 12.7 mph 17.3 mph N/A Thunderstorm Mostly Cloudy
1:07 PM 89.1 °F 95.0 °F 71.1 °F 55% 30.00 in 10.0 mi South 10.4 mph 18.4 mph N/A Thunderstorm Thunderstorm
1:53 PM 82.0 °F 86.3 °F 71.1 °F 69% 30.01 in 10.0 mi NNE 6.9 mph - N/A Thunderstorm Thunderstorm
2:06 PM 80.1 °F 83.2 °F 70.0 °F 71% 30.01 in 10.0 mi North 9.2 mph - N/A Thunderstorm Overcast
2:41 PM 75.0 °F - 71.1 °F 87% 30.02 in 5.0 mi NNW 4.6 mph - 0.12 in Rain Heavy Rain
2:53 PM 75.9 °F - 72.0 °F 87% 30.03 in 5.0 mi North - - 0.13 in Rain , Thunderstorm Light Thunderstorms and Rain
3:22 PM 73.9 °F - 71.1 °F 91% 30.01 in 5.0 mi ESE 8.1 mph - 0.09 in Rain , Thunderstorm Thunderstorms and Rain
3:48 PM 73.4 °F - 71.6 °F 94% 30.00 in 10.0 mi SE 10.4 mph - 0.10 in   Mostly Cloudy
3:53 PM 73.9 °F - 71.1 °F 91% 29.99 in 10.0 mi SE 9.2 mph - 0.10 in   Mostly Cloudy
4:53 PM 81.0 °F 85.2 °F 72.0 °F 74% 29.97 in 10.0 mi East 9.2 mph - N/A   Clear
6:53 PM 82.9 °F 88.8 °F 73.0 °F 72% 29.97 in 10.0 mi ESE 3.5 mph - N/A   Scattered Clouds
7:53 PM 79.0 °F - 73.0 °F 82% 29.98 in 10.0 mi East 8.1 mph - N/A   Mostly Cloudy
8:53 PM 78.1 °F - 72.0 °F 81% 29.99 in 10.0 mi East 6.9 mph - N/A   Clear
9:53 PM 77.0 °F - 73.0 °F 88% 30.01 in 10.0 mi East 5.8 mph - N/A   Clear
10:53 PM 75.9 °F - 73.0 °F 91% 30.02 in 10.0 mi East 6.9 mph - N/A   Clear
11:53 PM 75.0 °F - 73.0 °F 94% 30.01 in 10.0 mi East 4.6 mph - N/A   Clear